Miscellaneous Local Product
Issued by NWS Hastings, NE

Home | Current Version | Previous Version | Graphics & Text | Print | Product List | Glossary On
Versions: 1 2 3 4 5 6 7 8 9 10 11 12 13 14 15 16 17 18 19 20 21 22 23 24 25 26 27 28 29 30 31 32 33 34 35 36 37 38 39 40 41 42 43 44 45 46 47 48 49 50
000
AXUS43 KGID 251502
MISGRI

GID CWA HOURLY WEATHER ROUNDUP
NATIONAL WEATHER SERVICE HASTINGS NE
1000 AM CDT WED MAR 25 2015

NOTE: "FAIR" INDICATES FEW OR NO CLOUDS BELOW 12,000 FEET WITH NO
SIGNIFICANT WEATHER AND/OR OBSTRUCTIONS TO VISIBILITY.

...SOUTH CENTRAL NEBRASKA...

CITY           SKY/WX    TMP DP  RH WIND       PRES   REMARKS
GRAND ISLAND   LGT RAIN  37  32  82 N16       30.12R WCI  28
HASTINGS       LGT RAIN  39  35  86 N17G26    30.06S WCI  30
KEARNEY        CLOUDY    37  34  87 N24       30.07S WCI  26
ORD            CLOUDY    37  28  70 N20       30.11R WCI  27
YORK           LGT RAIN  39  36  87 N16       30.10R WCI  30
AURORA         LGT RAIN  38  38 100 N10       30.10R WCI  31
LEXINGTON      LGT RAIN  40  33  77 N22       30.06R WCI  29
HOLDREGE       CLOUDY    42  33  72 NE22      30.05R
HEBRON         CLOUDY    42  39  89 N13G22    30.05R

...NEBRASKA PANHANDLE...

CITY           SKY/WX    TMP DP  RH WIND       PRES   REMARKS
CHADRON        CLOUDY    33  25  72 N9        30.20R WCI  25
ALLIANCE       CLOUDY    31  24  75 N18       30.15R WCI  19
SCOTTSBLUFF    CLOUDY    38  33  82 N9        30.15R WCI  31
SIDNEY         FLURRIES  35  29  78 N15       30.11R WCI  25

...WESTERN AND NORTH CENTRAL NEBRASKA...

CITY           SKY/WX    TMP DP  RH WIND       PRES   REMARKS
VALENTINE      CLOUDY    34  23  64 NW23G32   30.15R WCI  22
AINSWORTH      CLOUDY    34  26  71 N21G30    30.13R WCI  22
ONEILL         CLOUDY    36  28  73 N22G33    30.10R WCI  25
BROKEN BOW     CLOUDY    37  27  67 N22       30.11R WCI  26
IMPERIAL         N/A     43  28  55 NE15      30.07R
NORTH PLATTE   CLOUDY    39  26  59 N13       30.10R WCI  31
MCCOOK         CLOUDY    46  31  55 NE20G29   30.05R

...EASTERN NEBRASKA...

CITY           SKY/WX    TMP DP  RH WIND       PRES   REMARKS
NORFOLK        CLOUDY    38  30  73 NW23G30   30.08R WCI  27
SO SIOUX CITY  PTSUNNY   39  30  70 NW17G30   30.06R WCI  30
TEKAMAH        PTSUNNY   42  33  70 NW18G33   30.08R
COLUMBUS       CLOUDY    39  28  65 N18       30.12R WCI  30
ALBION         CLOUDY    38  30  73 N15       30.10R WCI  29
OMAHA EPPLEY   CLOUDY    42  36  79 N21       30.06S
OFFUTT AFB     CLOUDY    42  36  80 N10       30.07R
MILLARD        DRIZZLE   42  38  86 N8        30.07R
LINCOLN        CLOUDY    41  36  82 N17       30.10R
NEBRASKA CITY  CLOUDY    39  39 100 NW8       30.06R FOG     WCI  34
BEATRICE       CLOUDY    39  39  99 N7        30.06R FOG     WCI  34
FALLS CITY     CLOUDY    40  38  93 N8        30.04R WCI  34

...NORTHERN KANSAS...

CITY           SKY/WX    TMP DP  RH WIND       PRES   REMARKS
GOODLAND       CLOUDY    44  35  70 N14       30.05R
HILL CITY      PTSUNNY   54  33  45 N21       30.00R
NORTON         PTSUNNY   48  34  57 NE21G28   30.02R
PHILLIPSBURG   CLOUDY    48  39  71 N21G28    30.01R
SMITH CENTER   PTSUNNY   45  37  76 N21G29    30.02R
BELOIT         PTSUNNY   46  43  87 NE10      30.01R
HAYS           CLOUDY    52  28  40 N10       29.98R
RUSSELL        CLOUDY    48  39  71 N10       29.96R
CONCORDIA      PTSUNNY   47  45  93 N7        30.02R FOG
SALINA         CLOUDY    43  39  86 E5        29.98S
TOPEKA         CLOUDY    43  42  97 N3        30.05R FOG



USA.gov is the U.S. government's official web portal to all federal, state and local government web resources and services.